User: anonymous   Login
Location: Unspecified
(0.0000°N, 0.0000°E)
Time: 05:30:46
(UTC+01:00)
Language:

SJ-6B - Orbit

View from above orbital plane
View from above orbital plane
View from above satellite
View from above satellite

Ground track
Ground track

The orbit data is extracted from the following two-line orbital elements,

1 28415U 04035C   17022.85496068 -.00000093  00000-0 -15673-5 0  9991
2 28415  97.7610  51.1599 0051004 253.9729 105.5876 15.06035837676705
Epoch (UTC): 22 January 2017 20:31:08
Eccentricity: 0.0051004
inclination: 97.7610°
perigee height: 513 km
apogee height: 583 km
right ascension of ascending node: 51.1599°
argument of perigee: 253.9729°
revolutions per day: 15.06035837
mean anomaly at epoch: 105.5876°
orbit number at epoch: 67670

The dashed part of the orbit path shows where the satellite is in the earth's shadow,  

DLR